TimeEDT,TemperatureF,Dew PointF,Humidity,Sea Level PressureIn,VisibilityMPH,Wind Direction,Wind SpeedMPH,Gust SpeedMPH,PrecipitationIn,Events,Conditions,WindDirDegrees,DateUTC
12:50 AM,60.8,60.8,100,30.08,1.0,Calm,Calm,-,N/A,Fog,Fog,0,2012-10-05 04:50:00
1:50 AM,60.8,60.8,100,30.08,1.0,Calm,Calm,-,N/A,Fog,Fog,0,2012-10-05 05:50:00
2:45 AM,60.8,60.8,100,30.08,0.5,WNW,4.6,-,N/A,Fog,Fog,290,2012-10-05 06:45:00
3:47 AM,59.0,59.0,100,30.07,0.5,WNW,4.6,-,N/A,Fog,Fog,290,2012-10-05 07:47:00
4:45 AM,59.0,59.0,100,30.07,0.5,West,9.2,-,N/A,Fog,Fog,280,2012-10-05 08:45:00
6:45 AM,55.4,55.4,100,30.08,2.0,WSW,4.6,-,N/A,,Scattered Clouds,250,2012-10-05 10:45:00
7:45 AM,57.2,57.2,100,30.08,10.0,WSW,5.8,-,N/A,,Scattered Clouds,250,2012-10-05 11:45:00
9:45 AM,62.6,60.8,94,30.09,20.0,West,9.2,-,N/A,,Clear,270,2012-10-05 13:45:00
10:45 AM,64.4,60.8,88,30.09,20.0,West,11.5,-,N/A,,Clear,270,2012-10-05 14:45:00
12:45 PM,71.6,59.0,64,30.04,20.0,West,5.8,-,N/A,,Clear,270,2012-10-05 16:45:00
1:45 PM,73.4,59.0,61,30.01,20.0,West,3.5,-,N/A,,Clear,270,2012-10-05 17:45:00
2:45 PM,75.2,60.8,61,29.99,20.0,West,4.6,-,N/A,,Clear,260,2012-10-05 18:45:00
3:45 PM,75.2,60.8,61,29.97,20.0,SW,6.9,-,N/A,,Clear,220,2012-10-05 19:45:00
4:55 PM,75.2,62.6,65,29.97,20.0,SW,9.2,-,N/A,,Clear,230,2012-10-05 20:55:00
5:45 PM,73.4,60.8,65,29.96,20.0,SW,9.2,-,N/A,,Clear,230,2012-10-05 21:45:00
6:50 PM,71.6,60.8,69,29.96,10.0,SSW,6.9,-,N/A,,Clear,210,2012-10-05 22:50:00
7:50 PM,69.8,60.8,73,29.96,10.0,Variable,4.6,-,N/A,,Clear,0,2012-10-05 23:50:00
8:50 PM,68.0,60.8,78,29.95,10.0,Variable,4.6,-,N/A,,Clear,0,2012-10-06 00:50:00
9:50 PM,64.4,59.0,83,29.96,10.0,Calm,Calm,-,N/A,,Clear,0,2012-10-06 01:50:00
10:45 PM,64.4,59.0,83,29.95,10.0,Calm,Calm,-,N/A,,Clear,0,2012-10-06 02:45:00
11:45 PM,64.4,59.0,83,29.94,10.0,Variable,4.6,-,N/A,,Clear,0,2012-10-06 03:45:00